Regional Weather Roundup
Issued by NWS

Home | Current Version | Previous Version | Graphics & Text | Print | Product List | Glossary On
Versions: 1 2 3 4 5 6 7 8 9 10 11 12 13 14 15 16 17 18 19 20 21 22 23 24 25 26 27
000
ASUS45 KBOU 260807
RWRCO

WEATHER ROUNDUP FOR COLORADO
NATIONAL WEATHER SERVICE DENVER/BOULDER CO
200 AM MDT FRI AUG 26 2016

NOTE: "FAIR" INDICATES FEW OR NO CLOUDS BELOW 12000 FEET WITH NO
SIGNIFICANT WEATHER AND/OR OBSTRUCTIONS TO VISIBILITY.

COZ001>005-013-030-031-260900-
...NORTHWEST COLORADO...

CITY           SKY/WX    TMP DP  RH WIND       PRES   REMARKS
CRAIG          FAIR      49  41  74 CALM      30.24R
HAYDEN         FAIR      52  36  54 E9        30.24S
MEEKER         FAIR      49  40  71 CALM      30.25F
MOUNT WERNER   NOT AVBL
STEAMBOAT SPGS FAIR      51  39  65 CALM      30.26F
WALDEN         FAIR      46  36  66 S3        30.34F
$$

COZ006>008-011-260900-
...WEST CENTRAL VALLEYS...

CITY           SKY/WX    TMP DP  RH WIND       PRES   REMARKS
GRAND JUNCTION FAIR      57  48  72 E9        30.20F
MONTROSE       CLOUDY    53  46  77 N5        30.29S
EAGLE          FAIR      48  46  93 CALM      30.32F
RIFLE          FAIR      52  50  93 NE3       30.25F
DELTA          NOT AVBL
NUCLA          FAIR     N/A N/A N/A E8        30.30F
$$

COZ017>023-064>068-260900-
...SOUTHWEST COLORADO...

CITY           SKY/WX    TMP DP  RH WIND       PRES   REMARKS
DURANGO        CLOUDY    53  46  77 CALM      30.28F
CORTEZ         FAIR      54  50  86 E6        30.26S
PAGOSA SPRINGS FAIR      51  48  90 CALM      30.33F THUNDER
TELLURIDE      CLOUDY    42  41  95 SE7       30.42F
WOLF CREEK PAS CLOUDY    36  36 100 SW12      30.55S
$$

COZ009-010-012-014-032>034-037-058>063-260900-
...CENTRAL COLORADO...

CITY           SKY/WX    TMP DP  RH WIND       PRES   REMARKS
ASPEN          CLOUDY    45  43  93 CALM      30.32F
BUENA VISTA    CLOUDY    46  43  89 NW3       30.37F
COPPER MTN     CLOUDY    37  32  81 S17       30.50F
BERTHOUD PASS  CLOUDY    32  19  59 NW5       30.51F WCI  27
COTTONWOOD PAS CLOUDY    43  37  81 SW7       30.44F
GUNNISON       FAIR      48  45  87 NE5       30.38F
KREMMLING      FAIR      50  39  66 CALM      30.32F
LEADVILLE      LGT RAIN  38  36  92 CALM      30.42F
MONARCH PASS   HVY SNOW  34  32  93 W13       30.62F VSB<1/4 WCI  25
SALIDA         FAIR      50  47  88 NW6       30.42F
SUNLIGHT       FAIR      39  39 100 N10G20    30.48S FOG
WILKERSON PASS LGT RAIN  37  36  93 SW8       30.50F VSB 3/4
$$

COZ069>075-260900-
...SAN LUIS VALLEY/SANGRE DE CRISTO MOUNTAINS...

CITY           SKY/WX    TMP DP  RH WIND       PRES   REMARKS
ALAMOSA        MOCLDY    48  45  89 N5        30.31F
LA VETA PASS   MOCLDY    41  39  93 S9G18     30.44F
SAGUACHE       MOCLDY    46  45  93 N9        30.36S
$$

COZ035-036-038>040-260900-
...NORTHERN COLORADO FRONT RANGE...

CITY           SKY/WX    TMP DP  RH WIND       PRES   REMARKS
DENVER INTL AP CLOUDY    52  47  83 S8        30.18F
DMNS CITY PARK   N/A     55  49  79 E10       30.17F
AURORA         CLOUDY    53  47  77 S12       30.19F
FRONT RANGE AP NOT AVBL
ERIE MUNI ARPT CLOUDY    56  52  84 CALM      30.17F
BOULDER MUN AP MOCLDY    55  52  88 W5        30.17F
CENTENNIAL     MOCLDY    56  45  66 SW10      30.20F
BROOMFIELD     FAIR      54  50  87 W9        30.19F
FORT COLLINS   FAIR      55  52  88 CALM      30.17F
LONGMONT       CLOUDY    57  53  85 NW6       30.18F
$$

COZ041-046-047-076>085-087-088-260900-
...PIKES PEAK/PALMER DIVIDE AND SOUTHERN FOOTHILLS...

CITY           SKY/WX    TMP DP  RH WIND       PRES   REMARKS
COLO. SPRINGS  MOCLDY    54  45  71 E3        30.28F
A. F. ACADEMY  FAIR      47  45  93 N2        30.26F
SCHRIEVER AFB  NOT AVBL
ELLICOTT       NOT AVBL
FALCON         CLOUDY    49  47  91 CALM      30.30F
FORT CARSON    FAIR      53  47  77 W2        30.25F
LIMON          CLOUDY    56  53  90 S7        30.24F
MONUMENT HILL  FAIR      46  45  93 S7        30.29F
TRINIDAD       CLOUDY    56  49  77 W9        30.26F
$$

COZ042>045-048>051-090-091-260900-
...NORTHEAST COLORADO...

CITY           SKY/WX    TMP DP  RH WIND       PRES   REMARKS
GREELEY ARPT   FAIR      52  48  87 NE5       30.18F
AKRON          MOCLDY    58  52  80 SE12      30.20F
BURLINGTON     FAIR      55  49  80 SE7       30.20F
WRAY           NOT AVBL
STERLING       FAIR      59  54  82 S3        30.16F
HOLYOKE        FAIR      54  48  82 E5        30.21S
FORT MORGAN    FAIR      53  50  89 E7        30.18F
$$

COZ086-089-092>099-260900-
...SOUTHEAST COLORADO...

CITY           SKY/WX    TMP DP  RH WIND       PRES   REMARKS
PUEBLO         FAIR      56  51  84 W3        30.21F
LA JUNTA       FAIR      60  57  89 NW7       30.19F
LAMAR          FAIR      62  57  83 CALM      30.16R
SPRINGFIELD      N/A     60  59  96 VRB3      30.19F
$$




USA.gov is the U.S. government's official web portal to all federal, state and local government web resources and services.